Cas;Teplota [C];Tlak [hPa];Svetlo [lux];Rychlost vetru [km/h];Smer vetru [stupne]
2021-03-06 00:00:01;-4,56;1029,03;7;0;0
2021-03-06 00:01:01;-4,53;1029,04;8;0;0
2021-03-06 00:02:01;-4,48;1029,07;7;0;0
2021-03-06 00:03:01;-4,45;1029,04;8;0;0
2021-03-06 00:04:01;-4,58;1029;7;0;0
2021-03-06 00:05:01;-4,53;1028,97;9;0;0
2021-03-06 00:06:01;-4,51;1028,97;8;0;0
2021-03-06 00:07:01;-4,52;1029,12;7;0;0
2021-03-06 00:08:01;-4,5;1029,2;8;0;0
2021-03-06 00:09:01;-4,62;1029,1;7;0;0
2021-03-06 00:10:01;-4,42;1029,04;8;0;0
2021-03-06 00:11:01;-4,46;1029,09;8;0;0
2021-03-06 00:12:01;-4,5;1029,18;8;0;0
2021-03-06 00:13:02;-4,47;1029,27;8;0;0
2021-03-06 00:14:01;-4,54;1029,29;7;0;0
2021-03-06 00:15:01;-4,59;1029,3;8;0;0
2021-03-06 00:16:01;-4,63;1029,3;8;0;0
2021-03-06 00:17:01;-4,47;1029,23;8;0;0
2021-03-06 00:18:01;-4,44;1029,18;9;0;0
2021-03-06 00:19:01;-4,54;1029,15;8;0;0
2021-03-06 00:20:01;-4,64;1029,16;8;0;0
2021-03-06 00:21:01;-4,51;1029,23;8;0;0
2021-03-06 00:22:01;-4,57;1029,27;8;0;0
2021-03-06 00:23:01;-4,54;1029,26;8;0;0
2021-03-06 00:24:01;-4,65;1029,17;8;0;0
2021-03-06 00:25:01;-4,63;1029,18;7;0;0
2021-03-06 00:26:01;-4,54;1029,19;8;0;0
2021-03-06 00:27:01;-4,52;1029,25;8;0;0
2021-03-06 00:28:01;-4,56;1029,3;7;0;0
2021-03-06 00:29:01;-4,65;1029,31;8;0;0
2021-03-06 00:30:02;-4,59;1029,33;8;0;0
2021-03-06 00:31:01;-4,6;1029,32;7;0;0
2021-03-06 00:32:01;-4,59;1029,31;9;0;0
2021-03-06 00:33:02;-4,69;1029,33;7;0;0
2021-03-06 00:34:01;-4,63;1029,34;8;0;0
2021-03-06 00:35:01;-4,64;1029,32;8;0;0
2021-03-06 00:36:01;-4,63;1029,34;8;0;0
2021-03-06 00:37:01;-4,6;1029,34;8;0;0
2021-03-06 00:38:01;-4,58;1029,31;8;0;0
2021-03-06 00:39:01;-4,53;1029,31;9;0;0
2021-03-06 00:40:02;-4,59;1029,3;9;0;0
2021-03-06 00:41:01;-4,58;1029,33;9;0;0
2021-03-06 00:42:01;-4,69;1029,34;8;0;0
2021-03-06 00:43:01;-4,65;1029,34;8;0;0
2021-03-06 00:44:01;-4,76;1029,34;8;0;0
2021-03-06 00:45:01;-4,63;1029,34;8;0;0
2021-03-06 00:46:02;-4,57;1029,32;8;0;0
2021-03-06 00:47:01;-4,68;1029,33;8;0;0
2021-03-06 00:48:01;-4,73;1029,33;7;0;0
2021-03-06 00:49:01;-4,58;1029,32;9;0;0
2021-03-06 00:50:01;-4,71;1029,34;8;0;0
2021-03-06 00:51:01;-4,75;1029,34;7;0;0
2021-03-06 00:52:01;-4,71;1029,34;7;0;0
2021-03-06 00:53:01;-4,83;1029,34;8;0;0
2021-03-06 00:54:01;-4,69;1029,33;8;0;0
2021-03-06 00:55:01;-4,85;1029,34;8;0;0
2021-03-06 00:56:01;-4,91;1029,34;7;0;0
2021-03-06 00:57:01;-4,74;1029,34;8;0;0
2021-03-06 00:58:01;-4,82;1029,34;8;0;0
2021-03-06 00:59:01;-4,75;1029,34;8;0;0
2021-03-06 01:00:01;-4,81;1029,34;8;0;0
2021-03-06 01:01:01;-4,71;1029,34;8;0;0
2021-03-06 01:02:01;-4,78;1029,34;8;0;0
2021-03-06 01:03:01;-4,78;1029,34;9;0;0
2021-03-06 01:04:01;-4,74;1029,34;7;0;0
2021-03-06 01:05:02;-4,87;1029,34;7;0;0
2021-03-06 01:06:01;-4,87;1029,34;8;0;0
2021-03-06 01:07:01;-4,78;1029,34;8;0;0
2021-03-06 01:08:02;-4,76;1029,36;8;0;0
2021-03-06 01:09:01;-4,89;1029,35;8;0;0
2021-03-06 01:10:01;-4,82;1029,35;7;0;0
2021-03-06 01:11:01;-4,8;1029,35;8;0;0
2021-03-06 01:12:01;-4,81;1029,35;8;0;0
2021-03-06 01:13:02;-4,81;1029,35;9;0;0
2021-03-06 01:14:01;-4,75;1029,37;8;0;0
2021-03-06 01:15:01;-4,86;1029,36;7;0;0
2021-03-06 01:16:01;-4,89;1029,35;8;0;0
2021-03-06 01:17:01;-4,94;1029,35;8;0;0
2021-03-06 01:18:01;-4,96;1029,36;8;0;0
2021-03-06 01:19:01;-5,01;1029,37;8;0;0
2021-03-06 01:20:01;-4,9;1029,37;8;0;0
2021-03-06 01:21:01;-4,99;1029,36;8;0;0
2021-03-06 01:22:01;-5,07;1029,35;8;0;0
2021-03-06 01:23:01;-5,13;1029,35;7;0;0
2021-03-06 01:24:01;-5,05;1029,37;8;0;0
2021-03-06 01:25:01;-4,99;1029,35;8;0;0
2021-03-06 01:26:01;-5,06;1029,35;8;0;0
2021-03-06 01:27:02;-5,05;1029,35;7;0;0
2021-03-06 01:28:01;-5,01;1029,37;8;0;0
2021-03-06 01:29:02;-5,14;1029,36;8;0;0
2021-03-06 01:30:01;-5;1029,35;8;0;0
2021-03-06 01:31:01;-4,91;1029,35;8;0;0
2021-03-06 01:32:01;-5,03;1029,35;8;0;0
2021-03-06 01:33:01;-5,21;1029,36;8;0;0
2021-03-06 01:34:01;-5,12;1029,36;8;0;0
2021-03-06 01:35:02;-5,33;1029,35;8;0;0
2021-03-06 01:36:01;-5,19;1029,35;8;0;0
2021-03-06 01:37:01;-5,05;1029,35;8;0;0
2021-03-06 01:38:01;-5,16;1029,35;8;0;0
2021-03-06 01:39:01;-5,32;1029,35;8;0;0
2021-03-06 01:40:01;-5,16;1029,36;8;0;0
2021-03-06 01:41:01;-5,16;1029,36;8;0;0
2021-03-06 01:42:02;-5,17;1029,35;8;0;0
2021-03-06 01:43:01;-5,12;1029,35;8;0;0
2021-03-06 01:44:01;-5,3;1029,35;9;0;0
2021-03-06 01:45:01;-5,21;1029,35;8;0;0
2021-03-06 01:46:01;-5,16;1029,38;9;0;0
2021-03-06 01:47:02;-5,24;1029,36;8;0;0
2021-03-06 01:48:01;-5,22;1029,36;8;0;0
2021-03-06 01:49:01;-5,21;1029,35;8;0;0
2021-03-06 01:50:01;-5,32;1029,36;8;0;0
2021-03-06 01:51:01;-5,29;1029,36;9;0;0
2021-03-06 01:52:01;-5,24;1029,35;8;0;0
2021-03-06 01:53:01;-5,32;1029,38;7;0;0
2021-03-06 01:54:01;-5,22;1029,37;8;0;0
2021-03-06 01:55:01;-5,39;1029,36;8;0;0
2021-03-06 01:56:01;-5,29;1029,35;8;0;0
2021-03-06 01:57:01;-5,41;1029,35;8;0;0
2021-03-06 01:58:01;-5,44;1029,35;7;0;0
2021-03-06 01:59:01;-5,4;1029,37;8;0;0
2021-03-06 02:00:01;-5,38;1029,37;8;0;0
2021-03-06 02:01:01;-5,49;1029,35;8;0;0
2021-03-06 02:02:02;-5,44;1029,36;9;0;0
2021-03-06 02:03:01;-5,43;1029,35;8;0;0
2021-03-06 02:04:01;-5,38;1029,36;8;0;0
2021-03-06 02:05:01;-5,43;1029,38;8;0;0
2021-03-06 02:06:01;-5,45;1029,37;8;0;0
2021-03-06 02:07:01;-5,44;1029,36;8;0;0
2021-03-06 02:08:01;-5,28;1029,36;8;0;0
2021-03-06 02:09:01;-5,4;1029,36;7;0;0
2021-03-06 02:10:01;-5,45;1029,35;8;0;0
2021-03-06 02:11:01;-5,34;1029,37;8;0;0
2021-03-06 02:12:01;-5,35;1029,37;8;0;0
2021-03-06 02:13:01;-5,09;1029,37;8;0;0
2021-03-06 02:14:02;-5,25;1029,37;8;0;0
2021-03-06 02:15:01;-5,33;1029,36;8;0;0
2021-03-06 02:16:01;-5,28;1029,35;7;0;0
2021-03-06 02:17:01;-5,39;1029,36;8;0;0
2021-03-06 02:18:02;-5,36;1029,35;9;0;0
2021-03-06 02:19:01;-5,28;1029,35;8;0;0
2021-03-06 02:20:01;-5,14;1029,36;8;0;0
2021-03-06 02:21:01;-5,25;1029,35;8;0;0
2021-03-06 02:22:01;-5,4;1029,35;9;0;0
2021-03-06 02:23:01;-5,26;1029,35;8;0;0
2021-03-06 02:24:01;-5,45;1029,35;7;0;0
2021-03-06 02:25:01;-5,45;1029,38;7;0;0
2021-03-06 02:26:01;-5,63;1029,38;7;0;0
2021-03-06 02:27:01;-5,38;1029,39;9;0;0
2021-03-06 02:28:01;-5,45;1029,36;8;0;0
2021-03-06 02:29:01;-5,38;1029,35;7;0;0
2021-03-06 02:30:01;-5,48;1029,35;8;0;0
2021-03-06 02:31:01;-5,47;1029,35;9;0;0
2021-03-06 02:32:01;-5,54;1029,36;8;0;0
2021-03-06 02:33:02;-5,51;1029,35;8;0;0
2021-03-06 02:34:01;-5,49;1029,37;8;0;0
2021-03-06 02:35:01;-5,6;1029,36;9;0;0
2021-03-06 02:36:01;-5,4;1029,35;8;0;0
2021-03-06 02:37:01;-5,5;1029,35;7;0;0
2021-03-06 02:38:01;-5,62;1029,35;8;0;0
2021-03-06 02:39:01;-5,63;1029,35;9;0;0
2021-03-06 02:40:01;-5,64;1029,35;7;0;0
2021-03-06 02:41:01;-5,63;1029,35;8;0;0
2021-03-06 02:42:01;-5,72;1029,35;7;0;0
2021-03-06 02:43:01;-5,65;1029,35;8;0;0
2021-03-06 02:44:01;-5,61;1029,35;8;0;0
2021-03-06 02:45:01;-5,65;1029,35;8;0;0
2021-03-06 02:46:02;-5,52;1029,35;8;0;0
2021-03-06 02:47:01;-5,63;1029,35;8;0;0
2021-03-06 02:48:01;-5,68;1029,35;7;0;0
2021-03-06 02:49:01;-5,67;1029,35;9;0;0
2021-03-06 02:50:01;-5,66;1029,35;8;0;0
2021-03-06 02:51:02;-5,69;1029,35;8;0;0
2021-03-06 02:52:01;-5,6;1029,35;9;0;0
2021-03-06 02:53:01;-5,54;1029,35;8;0;0
2021-03-06 02:54:02;-5,63;1029,35;8;0;0
2021-03-06 02:55:01;-5,74;1029,35;8;0;0
2021-03-06 02:56:01;-5,67;1029,35;8;0;0
2021-03-06 02:57:01;-5,67;1029,35;8;0;0
2021-03-06 02:58:01;-5,64;1029,34;8;0;0
2021-03-06 02:59:01;-5,6;1029,34;8;0;0
2021-03-06 03:00:01;-5,66;1029,34;8;0;0
2021-03-06 03:01:02;-5,6;1029,3;9;0;0
2021-03-06 03:02:01;-5,57;1029,33;8;0;0
2021-03-06 03:03:01;-5,65;1029,34;8;0;0
2021-03-06 03:04:02;-5,52;1029,34;8;0;0
2021-03-06 03:05:01;-5,61;1029,34;7;0;0
2021-03-06 03:06:01;-5,62;1029,31;9;0;0
2021-03-06 03:07:01;-5,76;1029,3;8;0;0
2021-03-06 03:08:01;-5,66;1029,29;8;0;0
2021-03-06 03:09:01;-5,52;1029,29;8;0;0
2021-03-06 03:10:01;-5,6;1029,3;8;0;0
2021-03-06 03:11:01;-5,5;1029,32;8;0;0
2021-03-06 03:12:01;-5,38;1029,31;8;0;0
2021-03-06 03:13:01;-5,52;1029,31;8;0;0
2021-03-06 03:14:01;-5,45;1029,27;7;0;0
2021-03-06 03:15:01;-5,51;1029,29;9;0;0
2021-03-06 03:16:01;-5,45;1029,29;8;0;0
2021-03-06 03:17:01;-5,49;1029,33;8;0;0
2021-03-06 03:18:02;-5,54;1029,34;8;0;0
2021-03-06 03:19:01;-5,46;1029,32;8;0;0
2021-03-06 03:20:01;-5,51;1029,32;8;0;0
2021-03-06 03:21:01;-5,54;1029,33;7;0;0
2021-03-06 03:22:01;-5,61;1029,34;8;0;0
2021-03-06 03:23:01;-5,53;1029,33;8;0;0
2021-03-06 03:24:01;-5,48;1029,32;8;0;0
2021-03-06 03:25:02;-5,56;1029,32;8;0;0
2021-03-06 03:26:01;-5,56;1029,31;8;0;0
2021-03-06 03:27:01;-5,65;1029,31;8;0;0
2021-03-06 03:28:01;-5,54;1029,32;8;0;0
2021-03-06 03:29:01;-5,52;1029,34;8;0;0
2021-03-06 03:30:01;-5,6;1029,34;8;0;0
2021-03-06 03:31:02;-5,55;1029,34;7;0;0
2021-03-06 03:32:01;-5,68;1029,34;7;0;0
2021-03-06 03:33:01;-5,72;1029,33;7;0;0
2021-03-06 03:34:02;-5,64;1029,33;7;0;0
2021-03-06 03:35:01;-5,55;1029,33;7;0;0
2021-03-06 03:36:01;-5,59;1029,34;7;0;0
2021-03-06 03:37:01;-5,68;1029,34;9;0;0
2021-03-06 03:38:01;-5,79;1029,34;7;0;0
2021-03-06 03:39:01;-5,77;1029,34;7;0;0
2021-03-06 03:40:01;-5,81;1029,34;8;0;0
2021-03-06 03:41:01;-5,73;1029,34;9;0;0
2021-03-06 03:42:01;-5,68;1029,34;8;0;0
2021-03-06 03:43:01;-5,75;1029,34;9;0;0
2021-03-06 03:44:02;-5,66;1029,34;9;0;0
2021-03-06 03:45:01;-5,76;1029,34;8;0;0
2021-03-06 03:46:01;-5,7;1029,34;8;0;0
2021-03-06 03:47:02;-5,66;1029,34;7;0;0
2021-03-06 03:48:01;-5,73;1029,34;7;0;0
2021-03-06 03:49:01;-5,71;1029,34;8;0;0
2021-03-06 03:50:02;-5,61;1029,34;8;0;0
2021-03-06 03:51:01;-5,71;1029,33;8;0;0
2021-03-06 03:52:01;-5,78;1029,34;8;0;0
2021-03-06 03:53:01;-5,74;1029,34;8;0;0
2021-03-06 03:54:01;-5,76;1029,34;8;0;0
2021-03-06 03:55:01;-5,84;1029,34;8;0;0
2021-03-06 03:56:01;-5,78;1029,34;8;0;0
2021-03-06 03:57:01;-5,76;1029,34;8;0;0
2021-03-06 03:58:01;-5,7;1029,34;8;0;0
2021-03-06 03:59:01;-5,67;1029,36;9;0;0
2021-03-06 04:00:01;-5,67;1029,35;8;0;0
2021-03-06 04:01:01;-5,66;1029,36;8;0;0
2021-03-06 04:02:01;-5,85;1029,37;8;0;0
2021-03-06 04:03:01;-5,79;1029,36;8;0;0
2021-03-06 04:04:02;-5,69;1029,35;8;0;0
2021-03-06 04:05:01;-5,74;1029,35;8;0;0
2021-03-06 04:06:02;-5,92;1029,35;7;0;0
2021-03-06 04:07:01;-5,9;1029,36;8;0;0
2021-03-06 04:08:01;-5,79;1029,35;8;0;0
2021-03-06 04:09:02;-5,89;1029,37;7;0;0
2021-03-06 04:10:01;-5,8;1029,37;7;0;0
2021-03-06 04:11:01;-5,74;1029,36;7;0;0
2021-03-06 04:12:01;-5,85;1029,37;8;0;0
2021-03-06 04:13:01;-5,77;1029,36;8;0;0
2021-03-06 04:14:01;-5,85;1029,4;8;0;0
2021-03-06 04:15:01;-5,85;1029,43;8;0;0
2021-03-06 04:16:01;-5,74;1029,38;8;0;0
2021-03-06 04:17:01;-5,8;1029,38;8;0;0
2021-03-06 04:18:01;-5,81;1029,41;8;0;0
2021-03-06 04:19:01;-5,74;1029,45;8;0;0
2021-03-06 04:20:01;-5,94;1029,42;8;0;0
2021-03-06 04:21:02;-5,77;1029,43;9;0;0
2021-03-06 04:22:01;-5,81;1029,42;7;0;0
2021-03-06 04:23:01;-5,84;1029,37;9;0;0
2021-03-06 04:24:02;-5,75;1029,37;7;0;0
2021-03-06 04:25:01;-5,65;1029,39;8;0;0
2021-03-06 04:26:01;-5,82;1029,45;8;0;0
2021-03-06 04:27:01;-5,95;1029,45;8;0;0
2021-03-06 04:28:01;-5,81;1029,41;8;0;0
2021-03-06 04:29:02;-5,91;1029,38;7;0;0
2021-03-06 04:30:01;-5,94;1029,38;8;0;0
2021-03-06 04:31:02;-5,86;1029,4;9;0;0
2021-03-06 04:32:01;-5,81;1029,45;7;0;0
2021-03-06 04:33:01;-5,92;1029,47;8;0;0
2021-03-06 04:34:02;-5,98;1029,42;8;0;0
2021-03-06 04:35:01;-5,88;1029,41;9;0;0
2021-03-06 04:36:01;-5,93;1029,42;8;0;0
2021-03-06 04:37:02;-6,05;1029,43;7;0;0
2021-03-06 04:38:01;-5,99;1029,45;7;0;0
2021-03-06 04:39:01;-6,17;1029,44;8;0;0
2021-03-06 04:40:01;-6,07;1029,44;8;0;0
2021-03-06 04:41:02;-6;1029,39;9;0;0
2021-03-06 04:42:01;-5,98;1029,38;8;0;0
2021-03-06 04:43:01;-6,11;1029,39;8;0;0
2021-03-06 04:44:01;-6,07;1029,41;8;0;0
2021-03-06 04:45:01;-6,09;1029,45;8;0;0
2021-03-06 04:46:01;-6,12;1029,47;8;0;0
2021-03-06 04:47:01;-5,9;1029,46;9;0;0
2021-03-06 04:48:01;-6,17;1029,43;7;0;0
2021-03-06 04:49:01;-6,11;1029,46;7;0;0
2021-03-06 04:50:01;-6,02;1029,47;8;0;0
2021-03-06 04:51:01;-6,14;1029,54;9;0;0
2021-03-06 04:52:01;-6,09;1029,55;8;0;0
2021-03-06 04:53:01;-6,04;1029,5;7;0;0
2021-03-06 04:54:01;-6,29;1029,49;7;0;0
2021-03-06 04:55:02;-6,41;1029,52;8;0;0
2021-03-06 04:56:01;-6,25;1029,57;8;0;0
2021-03-06 04:57:01;-6,13;1029,61;9;0;0
2021-03-06 04:58:01;-6,15;1029,63;8;0;0
2021-03-06 04:59:01;-6,16;1029,65;9;0;0
2021-03-06 05:00:02;-6,25;1029,62;7;0;0
2021-03-06 05:01:01;-6,28;1029,48;7;0;0
2021-03-06 05:02:01;-6,1;1029,43;8;0;0
2021-03-06 05:03:01;-6,26;1029,47;8;0;0
2021-03-06 05:04:01;-6,28;1029,52;7;0;0
2021-03-06 05:05:01;-6,38;1029,57;8;0;0
2021-03-06 05:06:01;-6,12;1029,58;8;0;0
2021-03-06 05:07:01;-6,15;1029,52;8;0;0
2021-03-06 05:08:01;-6,39;1029,46;7;0;0
2021-03-06 05:09:01;-6,37;1029,48;8;0;0
2021-03-06 05:10:01;-6,33;1029,5;8;0;0
2021-03-06 05:11:01;-6,36;1029,61;8;0;0
2021-03-06 05:12:01;-6,27;1029,69;8;0;0
2021-03-06 05:13:01;-6,36;1029,67;9;0;0
2021-03-06 05:14:01;-6,19;1029,68;8;0;0
2021-03-06 05:15:01;-6,46;1029,65;8;0;0
2021-03-06 05:16:01;-6,32;1029,71;7;0;0
2021-03-06 05:17:01;-6,36;1029,81;8;0;0
2021-03-06 05:18:01;-6,3;1029,86;8;0;0
2021-03-06 05:19:01;-6,42;1029,85;8;0;0
2021-03-06 05:20:01;-6,46;1029,72;8;0;0
2021-03-06 05:21:01;-6,36;1029,76;8;0;0
2021-03-06 05:22:01;-6,38;1029,76;8;0;0
2021-03-06 05:23:01;-6,39;1029,87;8;0;0
2021-03-06 05:24:01;-6,28;1029,88;9;0;0
2021-03-06 05:25:01;-6,33;1029,84;9;0;0
2021-03-06 05:26:02;-6,46;1029,75;8;0;0
2021-03-06 05:27:01;-6,48;1029,84;9;0;0
2021-03-06 05:28:01;-6,57;1029,86;8;0;0
2021-03-06 05:29:01;-6,51;1029,84;7;0;0
2021-03-06 05:30:01;-6,44;1029,86;8;0;0
2021-03-06 05:31:01;-6,58;1029,92;8;0;0
2021-03-06 05:32:01;-6,48;1029,81;9;0;0
2021-03-06 05:33:01;-6,55;1029,74;8;0;0
2021-03-06 05:34:01;-6,43;1029,71;8;0;0
2021-03-06 05:35:01;-6,53;1029,81;8;0;0
2021-03-06 05:36:02;-6,52;1029,85;9;0;0
2021-03-06 05:37:01;-6,57;1029,91;9;0;0
2021-03-06 05:38:01;-6,5;1029,9;8;0;0
2021-03-06 05:39:02;-6,65;1029,82;9;0;0
2021-03-06 05:40:01;-6,45;1029,78;8;0;0
2021-03-06 05:41:01;-6,69;1029,79;8;0;0
2021-03-06 05:42:01;-6,57;1029,82;8;0;0
2021-03-06 05:43:01;-6,65;1029,75;8;0;0
2021-03-06 05:44:01;-6,62;1029,81;8;0;0
2021-03-06 05:45:01;-6,56;1029,85;8;0;0
2021-03-06 05:46:01;-6,54;1029,93;8;0;0
2021-03-06 05:47:01;-6,65;1029,98;8;0;0
2021-03-06 05:48:01;-6,57;1029,89;8;0;0
2021-03-06 05:49:01;-6,63;1029,93;9;0;0
2021-03-06 05:50:01;-6,65;1029,91;9;0;0
2021-03-06 05:51:01;-6,57;1029,9;9;0;0
2021-03-06 05:52:01;-6,48;1029,9;8;0;0
2021-03-06 05:53:01;-6,63;1029,95;9;0;0
2021-03-06 05:54:01;-6,55;1029,91;9;0;0
2021-03-06 05:55:02;-6,58;1029,91;9;0;0
2021-03-06 05:56:01;-6,71;1029,88;10;0;0
2021-03-06 05:57:01;-6,74;1029,91;11;0;0
2021-03-06 05:58:02;-6,71;1029,87;9;0;0
2021-03-06 05:59:01;-6,73;1029,88;10;0;0
2021-03-06 06:00:01;-6,66;1029,89;10;0;0
2021-03-06 06:01:01;-6,63;1029,94;9;0;0
2021-03-06 06:02:02;-6,75;1029,88;10;0;0
2021-03-06 06:03:01;-6,69;1029,9;10;0;0
2021-03-06 06:04:01;-6,55;1029,94;11;0;0
2021-03-06 06:05:02;-6,64;1029,98;11;0;0
2021-03-06 06:06:01;-6,66;1029,9;12;0;0
2021-03-06 06:07:01;-6,57;1029,9;14;0;0
2021-03-06 06:08:02;-6,56;1029,91;16;0;0
2021-03-06 06:09:01;-6,63;1029,97;18;0;0
2021-03-06 06:10:01;-6,55;1029,97;20;0;0
2021-03-06 06:11:01;-6,59;1029,92;24;0;0
2021-03-06 06:12:01;-6,64;1029,96;28;0;0
2021-03-06 06:13:01;-6,77;1030,02;34;0;0
2021-03-06 06:14:01;-6,71;1030;42;0;0
2021-03-06 06:15:01;-6,77;1029,93;51;0;0
2021-03-06 06:16:01;-6,7;1029,96;59;0;0
2021-03-06 06:17:01;-6,5;1030,01;71;0;0
2021-03-06 06:18:01;-6,58;1030,02;82;0;0
2021-03-06 06:19:01;-6,69;1030,05;97;0;0
2021-03-06 06:20:02;-6,79;1029,97;111;0;0
2021-03-06 06:21:01;-6,69;1030,01;128;0;0
2021-03-06 06:22:01;-6,83;1029,99;146;0;0
2021-03-06 06:23:02;-6,75;1030;167;0;0
2021-03-06 06:24:01;-6,61;1030;186;0;0
2021-03-06 06:25:01;-6,73;1029,97;207;0;0
2021-03-06 06:26:01;-6,81;1030,02;229;0;0
2021-03-06 06:27:01;-6,71;1030,04;253;0;0
2021-03-06 06:28:02;-6,62;1030;277;0;0
2021-03-06 06:29:01;-6,76;1029,98;301;0;0
2021-03-06 06:30:01;-6,67;1030;325;0;0
2021-03-06 06:31:01;-6,75;1030,06;351;0;0
2021-03-06 06:32:01;-6,54;1030,01;377;0;0
2021-03-06 06:33:01;-6,59;1030;403;0;0
2021-03-06 06:34:01;-6,72;1029,98;429;0;0
2021-03-06 06:35:01;-6,78;1030,03;455;0;0
2021-03-06 06:36:01;-6,72;1030,1;480;0;0
2021-03-06 06:37:01;-6,74;1030,14;505;0;0
2021-03-06 06:38:01;-6,67;1030,12;531;0;0
2021-03-06 06:39:01;-6,66;1030,1;555;0;0
2021-03-06 06:40:01;-6,78;1030,17;578;0;0
2021-03-06 06:41:01;-6,84;1030,19;601;0;0
2021-03-06 06:42:01;-6,78;1030,19;623;0;0
2021-03-06 06:43:01;-6,65;1030,19;645;0;0
2021-03-06 06:44:02;-6,72;1030,22;666;0;0
2021-03-06 06:45:01;-6,78;1030,18;686;0;0
2021-03-06 06:46:01;-6,84;1030,2;706;0;0
2021-03-06 06:47:01;-6,75;1030,23;727;0;0
2021-03-06 06:48:01;-6,68;1030,28;746;0;0
2021-03-06 06:49:01;-6,56;1030,23;764;0;0
2021-03-06 06:50:01;-6,7;1030,19;785;0;0
2021-03-06 06:51:02;-6,68;1030,17;804;0;0
2021-03-06 06:52:01;-6,58;1030,17;827;0;0
2021-03-06 06:53:01;-6,7;1030,19;872;0;0
2021-03-06 06:54:01;-6,77;1030,19;932;0;0
2021-03-06 06:55:01;-6,65;1030,23;975;0;0
2021-03-06 06:56:01;-6,81;1030,18;1003;0;0
2021-03-06 06:57:01;-6,71;1030,21;1025;0;0
2021-03-06 06:58:01;-6,68;1030,24;1046;0;0
2021-03-06 06:59:01;-6,76;1030,22;1066;0;0
2021-03-06 07:00:01;-6,54;1030,18;1086;0;0
2021-03-06 07:01:01;-6,57;1030,21;1105;0;0
2021-03-06 07:02:01;-6,48;1030,21;1121;0;0
2021-03-06 07:03:01;-6,71;1030,19;1134;0;0
2021-03-06 07:04:01;-6,61;1030,24;1148;0;0
2021-03-06 07:05:01;-6,59;1030,26;1162;0;0
2021-03-06 07:06:01;-6,7;1030,25;1177;0;0
2021-03-06 07:07:01;-6,73;1030,28;1190;0;0
2021-03-06 07:08:01;-6,6;1030,26;1203;0;0
2021-03-06 07:09:01;-6,43;1030,19;1216;0;0
2021-03-06 07:10:02;-6,48;1030,25;1227;0;0
2021-03-06 07:11:01;-6,56;1030,26;1239;0;0
2021-03-06 07:12:01;-6,56;1030,28;1250;0;0
2021-03-06 07:13:01;-6,43;1030,28;1263;0;0
2021-03-06 07:14:01;-6,55;1030,29;1274;0;0
2021-03-06 07:15:01;-6,45;1030,24;1284;0;0
2021-03-06 07:16:01;-6,59;1030,25;1294;0;0
2021-03-06 07:17:01;-6,37;1030,25;1302;0;0
2021-03-06 07:18:01;-6,59;1030,29;1312;0;0
2021-03-06 07:19:01;-6,4;1030,31;1322;0;0
2021-03-06 07:20:01;-6,3;1030,3;1332;0;0
2021-03-06 07:21:01;-6,28;1030,32;1341;0;0
2021-03-06 07:22:01;-6,13;1030,31;1349;0;0
2021-03-06 07:23:01;-6,17;1030,32;1358;0;0
2021-03-06 07:24:01;-6,09;1030,33;1366;0;0
2021-03-06 07:25:01;-6,07;1030,33;1374;0;0
2021-03-06 07:26:01;-5,95;1030,3;1382;0;0
2021-03-06 07:27:01;-5,98;1030,32;1388;0;0
2021-03-06 07:28:01;-6,05;1030,3;1394;0;0
2021-03-06 07:29:01;-5,9;1030,32;1402;0;0
2021-03-06 07:30:01;-6,02;1030,34;1409;0;0
2021-03-06 07:31:01;-5,8;1030,35;1416;0;0
2021-03-06 07:32:01;-5,89;1030,32;1423;0;0
2021-03-06 07:33:01;-5,95;1030,32;1427;0;0
2021-03-06 07:34:01;-5,91;1030,34;1433;0;0
2021-03-06 07:35:01;-5,73;1030,36;1441;0;0
2021-03-06 07:36:01;-5,72;1030,38;1448;0;0
2021-03-06 07:37:01;-5,93;1030,37;1454;0;0
2021-03-06 07:38:01;-5,8;1030,35;1459;0;0
2021-03-06 07:39:01;-5,69;1030,34;1465;0;0
2021-03-06 07:40:01;-5,83;1030,36;1468;0;0
2021-03-06 07:41:01;-5,75;1030,36;1473;0;0
2021-03-06 07:42:01;-5,83;1030,42;1476;0;0
2021-03-06 07:43:01;-5,76;1030,46;1481;0;0
2021-03-06 07:44:01;-5,67;1030,46;1483;0;0
2021-03-06 07:45:01;-5,67;1030,41;1488;0;0
2021-03-06 07:46:01;-5,68;1030,4;1491;0;0
2021-03-06 07:47:01;-5,62;1030,45;1497;0;0
2021-03-06 07:48:01;-5,54;1030,43;1500;0;0
2021-03-06 07:49:01;-5,54;1030,49;1505;0;0
2021-03-06 07:50:01;-5,48;1030,45;1510;0;0
2021-03-06 07:51:01;-5,57;1030,42;1514;0;0
2021-03-06 07:52:01;-5,38;1030,43;1515;0;0
2021-03-06 07:53:02;-5,36;1030,48;1521;0;0
2021-03-06 07:54:01;-5,3;1030,49;1522;0;0
2021-03-06 07:55:01;-5,36;1030,48;1527;0;0
2021-03-06 07:56:01;-5,26;1030,51;1529;0;0
2021-03-06 07:57:02;-5,3;1030,42;1531;0;0
2021-03-06 07:58:01;-5,22;1030,41;1536;0;0
2021-03-06 07:59:01;-5,09;1030,39;1540;0;0
2021-03-06 08:00:01;-5,22;1030,45;1544;0;0
2021-03-06 08:01:01;-5,13;1030,43;1546;0;0
2021-03-06 08:02:01;-4,93;1030,43;1550;0;0
2021-03-06 08:03:01;-5,01;1030,41;1553;0;0
2021-03-06 08:04:02;-4,85;1030,45;1555;0;0
2021-03-06 08:05:01;-4,94;1030,42;1561;0;0
2021-03-06 08:06:01;-4,9;1030,41;1562;0;0
2021-03-06 08:07:01;-4,75;1030,49;1564;0;0
2021-03-06 08:08:01;-4,81;1030,5;1567;0;0
2021-03-06 08:09:01;-4,94;1030,5;1569;0;0
2021-03-06 08:10:02;-4,91;1030,45;1572;0;0
2021-03-06 08:11:01;-4,76;1030,56;1573;0;0
2021-03-06 08:12:01;-4,79;1030,53;1575;0;0
2021-03-06 08:13:02;-4,66;1030,56;1577;0;0
2021-03-06 08:14:01;-4,65;1030,54;1579;0;0
2021-03-06 08:15:01;-4,6;1030,55;1584;0;0
2021-03-06 08:16:01;-4,56;1030,54;1585;0;0
2021-03-06 08:17:02;-4,59;1030,65;1586;0;0
2021-03-06 08:18:01;-4,49;1030,64;1589;0;0
2021-03-06 08:19:01;-4,49;1030,75;1592;0;0
2021-03-06 08:20:01;-4,53;1030,79;1593;0;0
2021-03-06 08:21:01;-4,51;1030,73;1594;0;0
2021-03-06 08:22:01;-4,53;1030,7;1599;0;0
2021-03-06 08:23:01;-4,64;1030,64;1601;0;0
2021-03-06 08:24:01;-4,46;1030,7;1603;0;0
2021-03-06 08:25:02;-4,48;1030,72;1608;0;0
2021-03-06 08:26:01;-4,42;1030,84;1609;0;0
2021-03-06 08:27:01;-4,5;1030,9;1609;0;0
2021-03-06 08:28:01;-4,4;1030,8;1609;0;0
2021-03-06 08:29:01;-4,38;1030,77;1614;0;0
2021-03-06 08:30:01;-4,38;1030,88;1616;0;0
2021-03-06 08:31:01;-4,4;1030,88;1617;0;0
2021-03-06 08:32:01;-4,28;1030,85;1617;0;0
2021-03-06 08:33:01;-4,38;1030,85;1621;0;0
2021-03-06 08:34:01;-4,3;1030,81;1624;0;0
2021-03-06 08:35:01;-4,1;1030,79;1625;0;0
2021-03-06 08:36:01;-4,09;1030,81;1625;0;0
2021-03-06 08:37:01;-4,13;1030,84;1625;0;0
2021-03-06 08:38:01;-4,21;1030,84;1626;0;0
2021-03-06 08:39:01;-4,21;1030,8;1629;0;0
2021-03-06 08:40:01;-4,07;1030,84;1631;0;0
2021-03-06 08:41:01;-3,98;1030,78;1631;0;0
2021-03-06 08:42:01;-4;1030,7;1632;0;0
2021-03-06 08:43:01;-4,07;1030,74;1632;0;0
2021-03-06 08:44:01;-3,98;1030,7;1632;0;0
2021-03-06 08:45:01;-3,97;1030,7;1633;0;0
2021-03-06 08:46:01;-3,74;1030,76;1633;0;0
2021-03-06 08:47:01;-3,79;1030,71;1633;0;0
2021-03-06 08:48:01;-3,72;1030,76;1634;0;0
2021-03-06 08:49:01;-3,75;1030,8;1637;0;0
2021-03-06 08:50:01;-3,63;1030,77;1637;0;0
2021-03-06 08:51:01;-3,58;1030,82;1638;0;0
2021-03-06 08:52:01;-3,47;1030,79;1640;0;0
2021-03-06 08:53:02;-3,31;1030,86;1638;0;0
2021-03-06 08:54:01;-3,44;1030,8;1636;0;0
2021-03-06 08:55:01;-3,33;1030,82;1638;0;0
2021-03-06 08:56:02;-3,34;1030,77;1640;0;0
2021-03-06 08:57:01;-3,29;1030,79;1640;0;0
2021-03-06 08:58:01;-3,38;1030,85;1640;0;0
2021-03-06 08:59:01;-3,42;1030,8;1640;0;0
2021-03-06 09:00:01;-3,3;1030,76;1640;0;0
2021-03-06 09:01:02;-3,29;1030,69;1641;0;0
2021-03-06 09:02:01;-3,27;1030,64;1641;0;0
2021-03-06 09:03:01;-3,3;1030,71;1641;0;0
2021-03-06 09:04:01;-3,31;1030,69;1642;0;0
2021-03-06 09:05:01;-3,2;1030,65;1642;0;0
2021-03-06 09:06:01;-3,25;1030,73;1642;0;0
2021-03-06 09:07:02;-3,17;1030,7;1642;0;0
2021-03-06 09:08:01;-2,88;1030,69;1643;0;0
2021-03-06 09:09:01;-3;1030,69;1644;0;0
2021-03-06 09:10:01;-2,82;1030,76;1646;0;0
2021-03-06 09:11:01;-2,95;1030,66;1646;0;0
2021-03-06 09:12:01;-2,94;1030,71;1648;0;0
2021-03-06 09:13:01;-2,81;1030,7;1652;0;0
2021-03-06 09:14:01;-2,66;1030,65;1650;0;0
2021-03-06 09:15:01;-2,47;1030,55;1650;0;0
2021-03-06 09:16:01;-2,44;1030,6;1650;0;0
2021-03-06 09:17:02;-2,53;1030,57;1651;0;0
2021-03-06 09:18:01;-2,5;1030,62;1649;0;0
2021-03-06 09:19:01;-2,28;1030,59;1649;0;0
2021-03-06 09:20:01;-2,28;1030,71;1651;0;0
2021-03-06 09:21:01;-2,1;1030,63;1654;0;0
2021-03-06 09:22:01;-2,15;1030,54;1655;0;0
2021-03-06 09:23:01;-2,19;1030,55;1657;0;0
2021-03-06 09:24:01;-2,12;1030,59;1657;0;0
2021-03-06 09:25:01;-2,14;1030,61;1659;0;0
2021-03-06 09:26:01;-2,04;1030,76;1663;0;0
2021-03-06 09:27:01;-1,97;1030,81;1664;0;0
2021-03-06 09:28:01;-1,95;1030,7;1664;0;0
2021-03-06 09:29:01;-1,96;1030,6;1664;0;0
2021-03-06 09:30:01;-1,83;1030,62;1665;0;0
2021-03-06 09:31:01;-1,86;1030,63;1665;0;0
2021-03-06 09:32:01;-1,72;1030,6;1665;0;0
2021-03-06 09:33:01;-1,76;1030,67;1665;0;0
2021-03-06 09:34:01;-1,78;1030,64;1665;0;0
2021-03-06 09:35:01;-1,66;1030,71;1665;0;0
2021-03-06 09:36:01;-1,67;1030,68;1665;0;0
2021-03-06 09:37:01;-1,57;1030,61;1665;0;0
2021-03-06 09:38:01;-1,65;1030,61;1667;0;0
2021-03-06 09:39:01;-1,62;1030,55;1671;0;0
2021-03-06 09:40:01;-1,36;1030,6;1673;0;0
2021-03-06 09:41:01;-1,45;1030,6;1673;0;0
2021-03-06 09:42:01;-1,35;1030,65;1673;0;0
2021-03-06 09:43:01;-1,22;1030,6;1676;0;0
2021-03-06 09:44:01;-1,28;1030,5;1678;0;0
2021-03-06 09:45:01;-1,18;1030,48;1679;0;0